{"data":{"norad_id":68742,"epoch":"2026-05-25T04:00:03.998880Z","epoch_age_seconds":61402,"freshness":"FRESH","line1":"1 68742U 26082Q   26145.16671295 -.01898787  00000+0 -23927-1 0  9993","line2":"2 68742  97.2855   8.8436 0002041  99.1192 142.2084 15.62729962  5940","mean_motion":15.62729962,"eccentricity":0.0002041,"inclination_deg":97.2855,"raan_deg":8.8436,"arg_perigee_deg":99.1192,"mean_anomaly_deg":142.2084,"bstar":-0.023927,"rev_number":594,"period_min":92.146438285286,"perigee_km":378.39596736508,"apogee_km":381.15454714849,"semimajor_km":6757.9122572568,"source":"CELESTRAK","updated_at":"2026-05-25T13:38:22.028664Z"}}